EW6135 Weather Reports


Display with metric or nautical units.
time (UTC)temp
F
wind
direction
speed
MPH
gust
MPH
rain 1hr
in
rain 24hr
in
rain mn
in
humidity
%
barometer
mb
20260903045054 76 266 0.0 0.0 0.00 0.03 0.00 99 1016.9
20260903044603 76 265 0.0 0.0 0.00 0.03 0.00 99 1016.8
20260903044053 76 265 0.0 0.0 0.00 0.03 0.00 99 1016.7
20260903043552 76 265 0.0 0.0 0.00 0.03 0.00 98 1016.7
20260903043053 76 265 0.0 0.0 0.00 0.03 0.00 98 1016.6
20260903042654 77 266 0.0 0.0 0.00 0.03 0.00 98 1016.7
20260903042053 77 265 0.0 0.0 0.00 0.03 0.00 98 1016.7
20260903041554 77 265 0.0 0.0 0.00 0.03 0.00 98 1016.7
20260903041050 77 266 0.0 1.0 0.00 0.03 0.00 98 1016.7
20260903040551 77 266 0.0 1.0 0.00 0.03 0.00 98 1016.8
20260903040049 77 265 0.0 0.0 0.00 0.03 0.00 98 1016.9
20260903035548 77 266 0.0 0.0 0.00 0.03 0.03 98 1016.9
20260903035048 77 266 0.0 0.0 0.00 0.03 0.03 98 1016.9
20260903034548 77 266 0.0 0.0 0.00 0.03 0.03 98 1016.9
20260903034052 77 266 0.0 0.0 0.00 0.00 0.03 98 1016.8
20260903033547 77 266 0.0 0.0 0.00 0.03 0.03 98 1016.9
20260903033052 77 266 0.0 0.0 0.00 0.03 0.03 98 1016.7
20260903032649 77 266 0.0 0.0 0.00 0.03 0.03 98 1016.8
20260903032048 77 266 0.0 0.0 0.00 0.03 0.03 98 1016.9
20260903031550 77 266 0.0 0.0 0.00 0.03 0.03 98 1016.9
20260903031047 77 266 0.0 0.0 0.00 0.03 0.03 98 1016.9
20260903030547 77 266 0.0 0.0 0.00 0.03 0.03 98 1016.9
20260903030108 77 265 0.0 0.0 0.00 0.03 0.03 97 1016.9
20260903025546 77 266 0.0 0.0 0.00 0.03 0.03 97 1017.0
20260903025046 77 266 0.0 0.0 0.00 0.03 0.03 97 1016.9
20260903024546 77 266 0.0 0.0 0.00 0.03 0.03 97 1016.8
20260903024045 78 266 0.0 0.0 0.00 0.03 0.03 97 1016.8
20260903023545 78 266 0.0 0.0 0.00 0.03 0.03 97 1016.9
20260903023046 78 265 0.0 0.0 0.00 0.03 0.03 97 1016.9
20260903022647 78 265 0.0 0.0 0.00 0.03 0.03 97 1017.0
20260903022048 78 266 0.0 0.0 0.00 0.03 0.03 97 1017.0
20260903021549 78 266 0.0 0.0 0.00 0.03 0.03 96 1017.0
20260903021049 78 266 0.0 0.0 0.00 0.03 0.03 96 1016.7
20260903020548 78 266 0.0 0.0 0.00 0.03 0.03 96 1016.7
20260903020048 78 266 0.0 0.0 0.00 0.03 0.03 96 1016.8
20260903015549 79 265 0.0 0.0 0.00 0.03 0.03 96 1016.9
20260903015048 79 266 0.0 0.0 0.00 0.03 0.03 96 1016.9
20260903014559 79 265 0.0 0.0 0.00 0.03 0.03 96 1016.8
20260903014047 79 266 0.0 1.0 0.00 0.03 0.03 96 1016.9
20260903013550 79 265 0.0 1.0 0.00 0.03 0.03 95 1016.8
20260903013048 79 266 0.0 1.0 0.00 0.03 0.03 95 1016.8
20260903012647 79 266 0.0 1.0 0.00 0.03 0.03 95 1016.9
20260903012049 79 266 0.0 1.0 0.00 0.03 0.03 94 1016.9
20260903011602 79 265 0.0 1.0 0.00 0.03 0.03 94 1016.8
20260903011044 79 266 0.0 0.0 0.00 0.03 0.03 94 1016.8
20260903010544 80 265 0.0 1.0 0.00 0.03 0.03 94 1016.7
20260903010047 80 265 0.0 2.0 0.00 0.03 0.03 93 1016.5
20260903005543 80 266 0.0 2.0 0.00 0.03 0.03 93 1016.4
20260903005043 80 265 0.0 1.0 0.00 0.03 0.03 93 1016.6
20260903004544 80 265 0.0 1.0 0.00 0.03 0.03 93 1016.5
20260903004045 80 266 0.0 1.0 0.00 0.03 0.03 92 1016.6
20260903003542 80 264 0.0 1.0 0.00 0.03 0.03 92 1016.5
20260903003043 80 264 0.0 1.0 0.01 0.03 0.03 91 1016.5
20260903002642 80 269 0.0 1.0 0.01 0.03 0.03 91 1016.7
20260903002042 80 269 0.0 1.0 0.01 0.03 0.03 91 1016.7
20260903001542 81 271 0.0 0.0 0.00 0.00 0.03 90 1016.8
20260903001041 81 271 0.0 0.0 0.01 0.03 0.03 90 1016.8
20260903000541 81 271 0.0 2.0 0.01 0.03 0.03 89 1017.0
20260903000041 81 271 0.0 2.0 0.01 0.03 0.03 89 1017.0
20260902235541 81 269 0.0 0.0 0.01 0.04 0.03 89 1017.0
20260902235040 81 269 0.0 0.0 0.01 0.04 0.03 88 1016.9
20260902234540 82 269 0.0 0.0 0.01 0.04 0.03 87 1016.9
20260902234040 82 269 0.0 0.0 0.01 0.04 0.03 86 1016.8
20260902233540 82 269 0.0 0.0 0.01 0.04 0.03 85 1016.9
20260902233040 83 269 0.0 1.0 0.01 0.04 0.03 84 1016.9
20260902232644 83 269 0.0 3.0 0.00 0.03 0.02 83 1016.8
20260902232042 83 269 0.0 3.0 0.00 0.03 0.02 82 1016.8
20260902231551 84 294 0.0 2.0 0.00 0.03 0.02 81 1016.8
20260902231041 84 295 0.0 3.0 0.00 0.03 0.02 80 1016.5
20260902230541 84 237 0.0 3.0 0.00 0.03 0.02 79 1016.6
20260902230041 85 262 0.0 2.0 0.00 0.03 0.02 78 1016.5
20260902225541 86 288 0.0 2.0 0.00 0.03 0.02 77 1016.4
20260902225041 86 266 0.0 3.0 0.00 0.03 0.02 78 1016.4
20260902224553 87 259 0.0 3.0 0.00 0.03 0.02 77 1016.5
20260902224044 88 257 0.0 2.0 0.00 0.03 0.02 77 1016.4
20260902223540 88 255 0.0 2.0 0.00 0.03 0.02 76 1016.4
20260902223050 88 221 0.0 3.0 0.00 0.03 0.02 75 1016.3
20260902222644 89 216 0.0 3.0 0.00 0.03 0.02 76 1016.5
20260902222042 88 216 1.0 3.0 0.00 0.03 0.02 75 1016.5
20260902221549 89 223 1.0 5.0 0.00 0.03 0.02 74 1016.5
20260902221042 89 232 0.0 5.0 0.00 0.03 0.02 74 1016.5
20260902220539 89 245 0.0 4.0 0.00 0.03 0.02 74 1016.5
20260902220053 89 82 0.0 5.0 0.00 0.03 0.02 76 1016.5
20260902215540 89 243 1.0 5.0 0.00 0.03 0.02 73 1016.4
20260902215039 89 212 1.0 4.0 0.00 0.03 0.02 73 1016.4
20260902214539 89 221 1.0 5.0 0.00 0.03 0.02 73 1016.6
20260902214039 89 293 1.0 5.0 0.00 0.03 0.02 73 1016.6
20260902213541 89 281 1.0 7.0 0.00 0.03 0.02 74 1016.5
20260902213040 89 293 3.0 6.0 0.00 0.03 0.02 72 1016.6
20260902212638 90 220 3.0 6.0 0.00 0.03 0.02 73 1016.4
20260902212039 90 283 2.0 7.0 0.00 0.03 0.02 73 1016.4
20260902211538 90 244 2.0 7.0 0.00 0.03 0.02 73 1016.3
20260902211039 90 271 2.0 8.0 0.00 0.03 0.02 73 1016.3
20260902210541 90 228 2.0 8.0 0.00 0.03 0.02 71 1016.2
20260902210045 90 217 2.0 9.0 0.00 0.03 0.02 72 1016.1
20260902205539 90 229 3.0 9.0 0.00 0.03 0.02 72 1016.0
20260902205038 90 242 3.0 7.0 0.00 0.03 0.02 72 1016.0
20260902204546 90 208 3.0 7.0 0.00 0.03 0.02 72 1016.0
20260902204037 90 238 4.0 7.0 0.00 0.03 0.02 72 1015.9
20260902203537 91 186 2.0 7.0 0.00 0.03 0.02 73 1016.0
20260902203042 91 297 2.0 8.0 0.00 0.03 0.02 74 1016.1
20260902202638 92 72 0.0 6.0 0.00 0.03 0.02 72 1016.1
20260902202035 91 150 1.0 7.0 0.00 0.03 0.02 73 1016.2
20260902201544 92 242 3.0 7.0 0.00 0.03 0.02 71 1016.3
20260902201033 92 249 1.0 4.0 0.00 0.03 0.02 71 1016.3
20260902200533 92 109 1.0 6.0 0.00 0.03 0.02 73 1016.4
20260902200033 92 126 2.0 6.0 0.00 0.03 0.02 73 1016.4
20260902195533 93 222 0.0 5.0 0.00 0.03 0.02 75 1016.5
20260902195032 93 131 1.0 6.0 0.00 0.03 0.02 72 1016.5
20260902194535 93 243 1.0 6.0 0.00 0.03 0.02 73 1016.5
20260902194031 93 262 1.0 6.0 0.00 0.03 0.02 73 1016.5
20260902193531 93 219 0.0 6.0 0.00 0.03 0.02 72 1016.5
20260902193040 93 269 1.0 6.0 0.00 0.03 0.02 72 1016.6
20260902192630 93 79 0.0 7.0 0.00 0.03 0.02 73 1016.6
20260902192030 93 79 0.0 7.0 0.00 0.03 0.02 71 1016.6
20260902191530 93 257 1.0 7.0 0.00 0.03 0.02 71 1016.6
20260902191028 93 227 0.0 8.0 0.00 0.03 0.02 73 1016.7
20260902190528 93 245 1.0 8.0 0.00 0.03 0.02 72 1016.7
20260902190029 93 212 1.0 6.0 0.00 0.03 0.02 71 1016.7
20260902185526 93 240 0.0 4.0 0.00 0.03 0.02 73 1016.7
20260902185026 93 74 1.0 7.0 0.00 0.03 0.02 70 1016.7
20260902184525 94 290 1.0 4.0 0.00 0.03 0.02 69 1016.7
20260902184024 94 92 1.0 4.0 0.00 0.03 0.02 71 1016.8
20260902183524 94 236 1.0 5.0 0.00 0.03 0.02 71 1016.8
20260902183027 93 162 1.0 5.0 0.00 0.03 0.02 71 1016.8
20260902182626 94 147 1.0 8.0 0.00 0.03 0.02 71 1016.9
20260902182023 94 78 1.0 8.0 0.00 0.03 0.02 71 1017.0
20260902181523 94 173 2.0 8.0 0.00 0.03 0.02 70 1017.0
20260902181021 94 256 2.0 7.0 0.00 0.03 0.02 69 1017.0
20260902180522 94 202 0.0 5.0 0.00 0.03 0.02 71 1016.9
20260902180019 94 305 1.0 5.0 0.00 0.03 0.02 68 1017.0
20260902175518 94 143 2.0 4.0 0.00 0.03 0.02 69 1017.0
20260902175016 94 132 0.0 5.0 0.00 0.03 0.02 65 1017.0
20260902174518 94 270 0.0 5.0 0.00 0.03 0.02 66 1017.1
20260902174014 94 237 1.0 6.0 0.00 0.03 0.02 66 1017.1
20260902173513 94 253 0.0 6.0 0.00 0.03 0.02 71 1017.1
20260902173015 94 248 0.0 4.0 0.00 0.03 0.02 66 1017.1
20260902172612 94 264 0.0 4.0 0.00 0.03 0.02 66 1017.2
20260902172009 94 178 0.0 2.0 0.00 0.03 0.02 69 1017.1
20260902171508 93 270 0.0 5.0 0.00 0.03 0.02 67 1017.1
20260902171007 93 209 0.0 5.0 0.00 0.03 0.02 69 1017.2
20260902170508 93 236 1.0 6.0 0.00 0.03 0.02 65 1017.2
20260902170005 93 226 2.0 6.0 0.00 0.03 0.02 68 1017.2
20260902165507 93 126 0.0 0.0 0.00 0.03 0.02 71 1017.3
20260902165004 93 247 0.0 1.0 0.00 0.03 0.02 69 1017.3
20260902164502 92 124 0.0 6.0 0.00 0.03 0.02 68 1017.3
20260902164101 92 249 2.0 6.0 0.00 0.03 0.02 68 1017.3
20260902163501 92 257 0.0 3.0 0.00 0.03 0.02 68 1017.3
20260902163104 92 27 0.0 5.0 0.00 0.03 0.02 68 1017.3
20260902162600 92 228 1.0 5.0 0.00 0.03 0.02 69 1017.5
20260902162004 92 215 0.0 5.0 0.00 0.03 0.02 70 1017.4
20260902161501 92 254 1.0 5.0 0.00 0.03 0.02 72 1017.3
20260902161001 92 67 0.0 3.0 0.00 0.03 0.02 71 1017.4
20260902160559 92 228 0.0 5.0 0.00 0.03 0.02 70 1017.4
20260902160110 91 229 0.0 6.0 0.00 0.03 0.02 69 1017.5
20260902155558 91 233 3.0 6.0 0.00 0.03 0.02 68 1017.4
20260902155057 90 222 2.0 6.0 0.00 0.03 0.02 67 1017.5
20260902154559 90 250 2.0 6.0 0.00 0.03 0.02 69 1017.6
20260902154100 90 258 1.0 4.0 0.00 0.03 0.02 69 1017.6
20260902153557 90 225 0.0 8.0 0.00 0.03 0.02 70 1017.5
20260902153058 90 290 4.0 8.0 0.00 0.03 0.02 69 1017.6
20260902152557 90 213 0.0 7.0 0.00 0.03 0.02 72 1017.5
20260902152059 90 260 0.0 7.0 0.00 0.03 0.02 71 1017.5
20260902151555 89 248 3.0 7.0 0.00 0.03 0.02 69 1017.6
20260902151055 90 230 0.0 4.0 0.00 0.03 0.02 72 1017.7
20260902150553 89 254 1.0 8.0 0.00 0.03 0.02 72 1017.7
20260902150054 89 210 2.0 8.0 0.00 0.03 0.02 70 1017.5
20260902145553 89 239 1.0 5.0 0.00 0.03 0.02 71 1017.6
20260902145052 89 233 0.0 4.0 0.00 0.03 0.02 72 1017.6
20260902144551 88 209 1.0 4.0 0.00 0.03 0.02 71 1017.6
20260902144050 88 172 0.0 4.0 0.00 0.03 0.02 73 1017.5
20260902143549 87 293 2.0 5.0 0.00 0.03 0.02 71 1017.4
20260902143049 87 212 2.0 5.0 0.00 0.03 0.02 70 1017.5
20260902142548 87 271 2.0 7.0 0.00 0.03 0.02 71 1017.5
20260902142048 87 207 1.0 7.0 0.00 0.03 0.02 72 1017.4
20260902141545 86 253 2.0 7.0 0.00 0.03 0.02 73 1017.4
20260902141045 86 290 2.0 4.0 0.00 0.03 0.02 76 1017.4
20260902140546 86 235 2.0 7.0 0.00 0.03 0.02 77 1017.3
20260902140043 86 286 2.0 6.0 0.00 0.03 0.02 78 1017.3
20260902135543 86 282 2.0 5.0 0.00 0.03 0.02 79 1017.3
20260902135041 85 245 2.0 4.0 0.00 0.03 0.02 80 1017.3
20260902134550 85 279 2.0 4.0 0.00 0.03 0.02 79 1017.3
20260902134039 84 244 1.0 5.0 0.00 0.03 0.02 81 1017.4
20260902133538 84 231 3.0 5.0 0.00 0.03 0.02 82 1017.4
20260902133037 84 247 1.0 6.0 0.00 0.03 0.02 83 1017.5
20260902132536 83 261 2.0 5.0 0.00 0.03 0.02 86 1017.6
20260902132041 83 259 2.0 5.0 0.00 0.03 0.02 86 1017.6
20260902131542 82 295 2.0 5.0 0.00 0.03 0.02 86 1017.6
20260902131034 82 245 2.0 5.0 0.00 0.03 0.02 87 1017.6
20260902130533 82 291 1.0 4.0 0.00 0.03 0.02 89 1017.7
20260902130033 81 273 2.0 6.0 0.00 0.03 0.02 90 1017.8
20260902125534 81 224 1.0 6.0 0.00 0.03 0.02 92 1017.8
20260902125029 81 215 2.0 6.0 0.00 0.03 0.02 93 1017.8
20260902124529 80 246 1.0 10.0 0.00 0.03 0.02 95 1017.9
20260902124026 80 250 3.0 10.0 0.00 0.03 0.02 96 1018.0
20260902123525 79 271 1.0 6.0 0.00 0.03 0.02 97 1018.0
20260902123029 79 252 2.0 6.0 0.00 0.03 0.02 98 1018.0
20260902122524 78 262 1.0 4.0 0.00 0.03 0.02 99 1018.1
20260902122022 78 269 1.0 4.0 0.00 0.03 0.02 99 1018.0
20260902121521 78 248 2.0 4.0 0.00 0.03 0.02 99 1017.9
20260902121022 78 240 0.0 3.0 0.00 0.03 0.02 99 1017.9
20260902120519 77 237 1.0 3.0 0.00 0.03 0.02 100 1017.8
20260902120017 77 248 1.0 3.0 0.00 0.03 0.02 100 1017.8
20260902115517 76 257 1.0 2.0 0.00 0.03 0.02 100 1017.8
20260902115015 76 226 0.0 2.0 0.00 0.03 0.02 100 1017.8
20260902114516 76 263 0.0 2.0 0.00 0.03 0.02 100 1017.7
20260902114014 75 270 0.0 1.0 0.00 0.03 0.02 100 1017.7
20260902113514 75 270 0.0 0.0 0.01 0.03 0.02 100 1017.7
20260902113014 74 270 0.0 0.0 0.01 0.03 0.02 100 1017.7
20260902112514 74 270 0.0 0.0 0.01 0.03 0.02 100 1017.7
20260902112015 73 270 0.0 0.0 0.01 0.03 0.02 100 1017.7
20260902111515 73 270 0.0 0.0 0.01 0.03 0.02 100 1017.8
20260902111015 73 270 0.0 0.0 0.01 0.03 0.02 100 1017.7
20260902110516 73 270 0.0 0.0 0.01 0.03 0.02 100 1017.7
20260902110018 73 270 0.0 0.0 0.01 0.04 0.02 100 1017.7
20260902105513 73 270 0.0 0.0 0.01 0.04 0.02 100 1017.5
20260902105013 73 270 0.0 0.0 0.01 0.04 0.02 100 1017.5
20260902104512 73 270 0.0 0.0 0.01 0.04 0.02 100 1017.5
20260902104012 73 270 0.0 0.0 0.01 0.04 0.02 100 1017.5
20260902103511 73 270 0.0 0.0 0.01 0.04 0.02 100 1017.5
20260902103011 73 270 0.0 0.0 0.00 0.03 0.01 100 1017.5
20260902102511 73 270 0.0 0.0 0.00 0.03 0.01 100 1017.6
20260902102011 73 270 0.0 0.0 0.00 0.03 0.01 100 1017.6
20260902101510 73 270 0.0 0.0 0.00 0.03 0.01 100 1017.5
20260902101010 73 270 0.0 0.0 0.00 0.03 0.01 100 1017.5
20260902100510 73 270 0.0 0.0 0.00 0.03 0.01 100 1017.4
20260902100014 73 270 0.0 0.0 0.00 0.03 0.01 100 1017.5
20260902095510 73 270 0.0 0.0 0.00 0.03 0.01 100 1017.5
20260902095010 73 270 0.0 0.0 0.00 0.03 0.01 99 1017.4
20260902094510 73 270 0.0 0.0 0.00 0.03 0.01 100 1017.4
20260902094010 73 270 0.0 0.0 0.00 0.03 0.01 100 1017.4
20260902093510 73 270 0.0 0.0 0.00 0.03 0.01 99 1017.3
20260902093019 73 270 0.0 0.0 0.00 0.03 0.01 100 1017.4
20260902092513 73 270 0.0 0.0 0.00 0.03 0.01 100 1017.4
20260902092008 73 270 0.0 0.0 0.00 0.03 0.01 100 1017.4
20260902091507 73 270 0.0 0.0 0.00 0.03 0.01 99 1017.4
20260902091007 73 270 0.0 0.0 0.01 0.03 0.01 99 1017.4
20260902090509 73 270 0.0 0.0 0.01 0.03 0.01 99 1017.3
20260902090007 74 270 0.0 0.0 0.01 0.03 0.01 99 1017.3
20260902085510 74 270 0.0 0.0 0.01 0.03 0.01 99 1017.3
20260902085007 74 270 0.0 0.0 0.01 0.03 0.01 100 1017.2
20260902084508 74 270 0.0 0.0 0.01 0.03 0.01 99 1017.3
20260902084006 74 270 0.0 0.0 0.01 0.03 0.01 99 1017.2
20260902083506 74 270 0.0 0.0 0.01 0.03 0.01 100 1017.2
20260902083005 74 270 0.0 0.0 0.01 0.03 0.01 99 1017.3
20260902082505 74 270 0.0 0.0 0.01 0.03 0.01 99 1017.3
20260902082005 74 270 0.0 0.0 0.01 0.03 0.01 99 1017.4
20260902081506 74 270 0.0 0.0 0.01 0.03 0.01 99 1017.3
20260902081005 74 270 0.0 0.0 0.00 0.02 0.00 99 1017.3
20260902080504 74 270 0.0 0.0 0.00 0.02 0.00 99 1017.2
20260902080004 74 270 0.0 0.0 0.00 0.02 0.00 99 1017.1
20260902075504 74 270 0.0 0.0 0.00 0.02 0.00 99 1017.1
20260902075004 74 270 0.0 0.0 0.00 0.02 0.00 99 1017.1
20260902074504 74 270 0.0 0.0 0.00 0.02 0.00 99 1017.0
20260902074004 74 270 0.0 0.0 0.00 0.02 0.00 99 1017.0
20260902073504 74 270 0.0 0.0 0.00 0.02 0.00 99 1017.1
20260902073003 74 270 0.0 0.0 0.00 0.02 0.00 99 1017.1
20260902072502 74 270 0.0 0.0 0.00 0.02 0.00 99 1017.2
20260902072003 74 270 0.0 0.0 0.00 0.02 0.00 99 1017.1
20260902071502 74 270 0.0 0.0 0.00 0.02 0.00 99 1017.2
20260902071105 74 270 0.0 0.0 0.00 0.02 0.00 99 1017.2
20260902070501 75 270 0.0 0.0 0.00 0.02 0.00 99 1017.2
20260902070002 74 270 0.0 0.0 0.00 0.03 0.00 99 1017.2
20260902065501 74 270 0.0 0.0 0.00 0.03 0.00 99 1017.3
20260902065100 74 270 0.0 0.0 0.00 0.03 0.00 99 1017.4
20260902064600 75 270 0.0 0.0 0.00 0.03 0.00 99 1017.3
20260902064100 75 270 0.0 0.0 0.00 0.03 0.00 99 1017.4
20260902063559 75 270 0.0 1.0 0.00 0.03 0.00 99 1017.5
20260902063100 75 270 0.0 1.0 0.00 0.03 0.00 99 1017.5
20260902062559 75 270 0.0 0.0 0.00 0.03 0.00 99 1017.5
20260902061103 75 270 0.0 0.0 0.00 0.03 0.00 99 1017.5
20260902060558 75 270 0.0 0.0 0.00 0.03 0.00 99 1017.6
20260902055601 75 270 0.0 0.0 0.00 0.03 0.00 99 1017.6
20260902055057 75 270 0.0 0.0 0.00 0.03 0.00 99 1017.5
20260902054612 75 270 0.0 0.0 0.00 0.03 0.00 99 1017.6
20260902054057 75 270 0.0 0.0 0.00 0.03 0.00 99 1017.5
20260902053558 75 270 0.0 0.0 0.00 0.03 0.00 99 1017.5
20260902053105 75 270 0.0 0.0 0.00 0.03 0.00 99 1017.6
20260902052556 75 270 0.0 0.0 0.00 0.03 0.00 98 1017.5
20260902051559 75 270 0.0 0.0 0.00 0.03 0.00 98 1017.5
20260902051157 75 270 0.0 0.0 0.00 0.03 0.00 98 1017.5
20260902050556 75 270 0.0 0.0 0.00 0.03 0.00 98 1017.5
20260902050057 75 270 0.0 0.0 0.00 0.03 0.00 98 1017.4
20260902045555 75 270 0.0 0.0 0.00 0.03 0.00 98 1017.3